1279843233321,97.8646
1279843293321,98.5754
1279843353322,98.2682
1279843413321,98.0849
1279843473321,97.6485
1279843533321,97.8402
1279843593321,98.3561
1279843653321,98.2330
1279843713322,99.0706
1279843773322,98.3443
1279843833322,98.4762
1279843893322,98.3116
1279843953322,97.9030
1279844013322,98.0780
1279844073321,97.7654
1279844133321,98.0767
1279844193321,100.716
1279844253321,97.6671
1279844313321,97.7640
1279844373321,98.0292
1279844433321,97.8497
1279844493321,98.6450
1279844553321,98.1475
1279844613321,98.4211
1279844673321,98.1269
1279844733321,98.0482
1279844793321,97.9919
1279844853321,97.8032
1279844913321,98.0356
1279844973321,97.9589
1279845033322,98.3137
1279845093322,98.0754
1279845153322,98.3046
1279845213322,98.3393
1279845273322,98.2826
1279845333322,98.3115
1279845393322,98.2187
1279845453321,98.6785
1279845513321,98.2410
1279845573321,98.1967
1279845633321,98.3670
1279845693321,98.2915
1279845753321,98.5238
1279845813321,98.3524
1279845873321,98.5553
1279845933321,98.2317
1279845993321,98.3266
1279846053322,98.5572
1279846113321,98.1073
1279846173321,98.3914
1279846233321,98.3615
1279846293321,98.3294
1279846353321,97.7410
1279846413322,97.8502
1279846473322,98.3191
1279846533322,97.9614
1279846593322,98.2898
1279846653322,97.9781
1279846713322,98.4879
1279846773321,98.5046
1279846833331,98.1031
1279846893331,98.4827
1279846953331,98.5309
1279847013331,98.7995
1279847073331,98.1412
1279847133331,98.4443
1279847193331,98.0773
1279847253331,98.2895
1279847313331,98.6412
1279847373331,98.0652
1279847433331,98.6596
1279847493331,98.4546
1279847553331,98.3206
1279847613331,98.4470
1279847673331,98.3153
1279847733331,98.9583
1279847793331,98.0605
1279847853331,98.7336
1279847913331,98.0964
1279847973331,98.6136
1279848033331,98.6708
1279848093331,98.1609
1279848153331,98.6515
1279848213331,98.8822
1279848273331,98.6343
1279848333331,98.0594
1279848393331,98.7339
1279848453331,98.9001
1279848513331,98.3942
1279848573331,99.0509
1279848633331,98.7507
1279848693331,98.2797
1279848753331,98.4341
1279848813331,98.4343
1279848873331,98.2852
1279848933331,98.6663
1279848993331,99.2307
1279849053331,99.0409
1279849113331,98.8978
1279849173331,98.4626
1279849233331,99.0186
1279849293331,98.7882
1279849353331,98.5716
1279849413331,98.6545
1279849473331,98.4901
1279849533331,98.8586
1279849593331,98.0520
1279849653331,99.0297
1279849713331,98.8292
1279849773331,98.7245
1279849833331,98.6725
1279849893331,98.7866
1279849953331,99.3099
1279850013331,98.5167
1279850073331,98.1667
1279850133331,98.5001
1279850193331,98.5741
1279850253331,98.9933
1279850313331,99.0060
1279850373331,99.3496
1279850433340,98.7920
1279850493340,98.9456
1279850553340,98.9757
1279850613340,98.5426
1279850673340,99.1019
1279850733340,99.0030
1279850793340,99.2591
1279850853340,98.8586
1279850913340,98.5734
1279850973340,98.7519
1279851033340,98.5319
1279851093340,98.9946
1279851153340,99.1358
1279851213340,98.7432
1279851273340,98.8953
1279851333340,98.9578
1279851393340,99.2452
1279851453340,99.0748
1279851513340,98.9462
1279851573340,99.1715
1279851633340,99.4979
1279851693340,98.5039
1279851753340,99.0967
1279851813340,98.9765
1279851873340,99.0720
1279851933340,99.2941
1279851993340,98.8381
1279852053340,99.2534
1279852113340,99.0581
1279852173340,99.0541
1279852233340,98.9465
1279852293340,98.8553
1279852353340,98.9053
1279852413340,99.3537
1279852473340,98.9743
1279852533340,98.9277
1279852593340,99.3959
1279852653340,98.8250
1279852713340,99.4176
1279852773340,99.2802
1279852833340,99.1149
1279852893340,99.0788
1279852953340,99.3133
1279853013340,98.8685
1279853073340,98.9930
1279853133340,99.2803
1279853193340,98.7674
1279853253340,99.5960
1279853313340,98.8439
1279853373340,99.0956
1279853433340,98.8679
1279853493340,99.3746
1279853553340,99.3359
1279853613340,99.2582
1279853673340,98.8926
1279853733340,99.4969
1279853793340,98.9307
1279853853340,99.0389
1279853913340,98.9990
1279853973340,98.8764
1279854033348,98.9837
1279854093348,98.6931
1279854153348,99.1758
1279854213348,99.1644
1279854273348,99.3347
1279854333348,99.1233
1279854393348,99.0873
1279854453348,99.0086
1279854513348,99.2240
1279854573348,98.5026
1279854633348,98.9993
1279854693348,99.5195
1279854753348,99.2029
1279854813348,99.4764
1279854873348,98.7391
1279854933348,99.1613
1279854993348,98.8661
1279855053348,98.9412
1279855113348,98.7758
1279855173348,99.0943
1279855233348,98.5376
1279855293348,99.1196
1279855353348,99.1280
1279855413348,98.6626
1279855473348,99.1692
1279855533348,98.7555
1279855593348,98.8037
1279855653348,99.2540
1279855713348,98.8429
1279855773348,98.8043
1279855833348,98.9509
1279855893348,98.5377
1279855953348,98.8871
1279856013348,98.6885
1279856073348,98.1221
1279856133348,98.4815
1279856193348,98.9377
1279856253348,98.9834
1279856313348,98.9198
1279856373348,98.4093
1279856433348,98.5418
1279856493348,98.3818
1279856553348,98.6157
1279856613348,98.6667
1279856673348,99.0542
1279856733348,98.5500
1279856793348,98.5278
1279856853348,98.5441
1279856913348,97.9434
1279856973348,98.6443
1279857033348,98.2534
1279857093348,98.1890
1279857153348,98.6068
1279857213348,98.8352
1279857273348,98.2383
1279857333348,99.1009
1279857393348,98.6382
1279857453348,98.4338
1279857513348,98.1647
1279857573348,98.6833
1279857633357,98.3725
1279857693357,97.9418
1279857753357,98.2392
1279857813357,98.1693
1279857873357,98.2402
1279857933357,98.0100
1279857993357,97.9753
1279858053357,98.4389
1279858113357,97.8746
1279858173357,98.1280
1279858233357,98.5529
1279858293357,97.5594
1279858353357,97.7108
1279858413357,98.2122
1279858473357,98.0487
1279858533357,98.1554
1279858593357,97.6891
1279858653357,97.9996
1279858713357,98.1585
1279858773357,97.8630
1279858833357,97.7284
1279858893357,97.9029
1279858953357,97.9958
1279859013357,97.6455
1279859073357,97.8456
1279859133357,97.6823
1279859193357,97.8010
1279859253357,98.3397
1279859313357,98.2584
1279859373357,97.7834
1279859433357,97.6086
1279859493357,97.8088
1279859553357,97.4154
1279859613357,97.6085
1279859673357,97.6459
1279859733357,97.6073
1279859793357,98.2722
1279859853357,97.6023
1279859913357,97.8018
1279859973357,98.2941
1279860033357,97.8948
1279860093357,97.4116
1279860153357,97.6415
1279860213357,97.6624
1279860273357,97.2844
1279860333357,97.7775
1279860393357,97.5849
1279860453357,97.4317
1279860513357,97.3059
1279860573357,97.9370
1279860633357,98.1894
1279860693357,97.4411
1279860753357,97.2422
1279860813357,97.5673
1279860873357,97.9323
1279860933357,97.4951
1279860993357,97.8924
1279861053357,97.5919
1279861113357,97.8817
1279861173357,97.3027
1279861233365,97.4262
1279861293365,97.4444
1279861353365,97.1798
1279861413365,97.6943
1279861473365,97.3498
1279861533365,97.4385
1279861593365,97.3395
1279861653365,97.2550
1279861713365,97.1556
1279861773365,97.7486
1279861833365,97.5816
1279861893365,97.4219
1279861953365,97.8541
1279862013365,97.6096
1279862073365,97.4909
1279862133365,96.9604
1279862193365,97.4897
1279862253365,97.4147
1279862313365,97.3822
1279862373365,97.4485
1279862433365,96.9415
1279862493365,96.8612
1279862553365,97.3601
1279862613365,97.4246
1279862673365,97.3278
1279862733365,97.6050
1279862793365,97.2108
1279862853365,97.5132
1279862913365,97.5513
1279862973365,97.5353
1279863033365,97.1159
1279863093365,97.5127
1279863153365,96.8549
1279863213365,97.8547
1279863273365,97.3584
1279863333365,97.1717
1279863393365,97.4859
1279863453365,97.5843
1279863513365,97.0069
1279863573365,97.4044
1279863633365,97.2668
1279863693365,97.3909
1279863753365,97.8113
1279863813365,97.5460
1279863873365,97.2901
1279863933365,97.4360
1279863993365,97.9466
1279864053365,97.9615
1279864113365,97.6882
1279864173365,97.6855
1279864233365,97.8788
1279864293365,97.3662
1279864353365,97.5608
1279864413365,97.3686
1279864473365,97.6236
1279864533365,97.8716
1279864593365,97.2778
1279864653365,97.4464
1279864713365,97.7532
1279864773365,97.6642
1279864833374,97.9913
1279864893374,97.3943
1279864953374,97.9365
1279865013374,97.7392
1279865073374,97.6984
1279865133374,97.9399
1279865193374,98.0223
1279865253374,98.3429
1279865313374,98.0112
1279865373374,97.5717
1279865433374,97.9850
1279865493374,97.6769
1279865553374,97.5087
1279865613374,97.6578
1279865673374,97.5784
1279865733374,98.4270
1279865793374,97.6637
1279865853374,97.5029
1279865913374,97.9415
1279865973374,97.8998
1279866033374,98.3626
1279866093374,97.9454
1279866153374,98.3625
1279866213374,98.2857
1279866273374,97.5951
1279866333374,98.7193
1279866393374,98.2564
1279866453374,98.1362
1279866513374,97.8776
1279866573374,98.4903
1279866633374,98.2380
1279866693374,98.1533
1279866753374,98.4780
1279866813374,98.2438
1279866873374,98.2884
1279866933374,98.2107
1279866993374,98.2280
1279867053374,97.8191
1279867113374,98.3651
1279867173374,98.4135
1279867233374,97.9695
1279867293374,98.2385
1279867353374,98.1526
1279867413374,98.3941
1279867473374,98.1168
1279867533374,98.3332
1279867593374,98.6137
1279867653374,98.3651
1279867713374,98.2409
1279867773374,98.5010
1279867833374,98.4121
1279867893374,98.5337
1279867953374,98.0825
1279868013374,98.8722
1279868073374,98.5685
1279868133374,98.5139
1279868193374,98.0048
1279868253374,98.6915
1279868313374,98.7261
1279868373374,98.1015
1279868433382,98.6609
1279868493382,98.8774
1279868553382,98.5183
1279868613382,98.9606
1279868673382,98.6044
1279868733382,98.8561
1279868793382,98.5992
1279868853382,98.6707
1279868913382,99.0853
1279868973382,98.9708
1279869033382,98.5221
1279869093382,98.8717
1279869153382,98.4550
1279869213382,99.0974
1279869273382,98.6578
1279869333382,99.1763
1279869393382,99.2791
1279869453382,98.6561
1279869513382,98.8743
1279869573382,98.4801
1279869633382,99.0399
1279869693382,99.3523
1279869753382,99.2678
1279869813382,98.5681
1279869873382,99.2508
1279869933382,98.8851
1279869993382,98.5952
1279870053382,99.0093
1279870113382,98.6372
1279870173382,99.1604
1279870233382,98.8023
1279870293382,99.2234
1279870353382,98.9738
1279870413382,99.2407
1279870473382,99.2722
1279870533382,98.8901
1279870593382,98.8044
1279870653382,98.9577
1279870713382,98.8469
1279870773382,99.4360
1279870833382,99.2411
1279870893382,99.0506
1279870953382,98.8635
1279871013382,99.3650
1279871073382,99.3299
1279871133382,99.2331
1279871193382,99.5589
1279871253382,99.2592
1279871313382,99.1691
1279871373382,99.0926
1279871433382,99.0556
1279871493382,99.5919
1279871553382,99.2648
1279871613382,99.4044
1279871673382,98.8781
1279871733382,99.4824
1279871793382,99.2236
1279871853382,99.2471
1279871913382,99.3390
1279871973382,99.5902
1279872033390,99.6611
1279872093390,99.5569
1279872153390,99.1875
1279872213390,99.1137
1279872273390,99.1299
1279872333390,98.7044
1279872393390,99.5339
1279872453390,99.6975
1279872513390,99.9236
1279872573390,99.7651
1279872633390,99.2699
1279872693390,99.3537
1279872753390,100.089
1279872813390,98.8796
1279872873390,99.2958
1279872933390,99.5089
1279872993390,99.2716
1279873053390,99.0050
1279873113390,99.6320
1279873173390,99.0776
1279873233390,100.123
1279873293390,99.1199
1279873353390,99.5015
1279873413390,99.4622
1279873473390,99.5669
1279873533390,99.5024
1279873593390,99.5296
1279873653390,99.3384
1279873713390,99.2734
1279873773390,99.5542
1279873833390,99.5940
1279873893390,99.5198
1279873953390,99.5929
1279874013390,99.0807
1279874073390,99.4526
1279874133390,99.1105
1279874193390,99.3012
1279874253390,99.7876
1279874313390,99.4465
1279874373390,99.2234
1279874433390,99.6681
1279874493390,99.3407
1279874553390,99.1491
1279874613390,99.5070
1279874673390,99.9247
1279874733390,99.8844
1279874793390,99.1351
1279874853390,99.4826
1279874913390,99.4983
1279874973390,100.114
1279875033390,99.3948
1279875093390,99.4995
1279875153390,99.6700
1279875213390,99.0938
1279875273390,99.0557
1279875333390,99.9064
1279875393390,99.5954
1279875453390,99.6555
1279875513390,100.037
1279875573390,99.0652
1279875633399,99.1156
1279875693399,98.8431
1279875753399,99.5226
1279875813399,99.1339
1279875873399,99.0691
1279875933399,99.5436
1279875993399,99.6812
1279876053399,99.8800
1279876113399,98.8816
1279876173399,99.2210
1279876233399,99.1895
1279876293399,99.2960
1279876353399,99.5108
1279876413399,100.358
1279876473399,99.6637
1279876533399,99.6984
1279876593399,99.0182
1279876653399,99.1304
1279876713399,99.2623
1279876773399,99.6139
1279876833399,99.3874
1279876893399,99.4843
1279876953399,99.4863
1279877013399,99.4492
1279877073399,99.5429
1279877133399,99.6934
1279877193399,99.5607
1279877253399,99.4592
1279877313399,99.6542
1279877373399,99.4692
1279877433399,99.6094
1279877493399,99.7622
1279877553399,99.7791
1279877613399,99.5077
1279877673399,99.9043
1279877733399,100.348
1279877793399,99.2336
1279877853399,100.004
1279877913399,99.6884
1279877973399,99.7711
1279878033399,99.8425
1279878093399,99.4176
1279878153399,99.1230
1279878213399,99.8835
1279878273399,100.192
1279878333399,99.7315
1279878393399,99.7806
1279878453399,99.3817
1279878513399,99.5601
1279878573399,99.7330
1279878633399,99.2949
1279878693399,100.038
1279878753399,100.260
1279878813399,99.6647
1279878873399,100.325
1279878933399,99.5807
1279878993399,99.6158
1279879053399,99.7174
1279879113399,100.089
1279879173399,99.8743
1279879233407,99.9502
1279879293407,100.584
1279879353407,100.240
1279879413407,100.308
1279879473407,99.6636
1279879533407,100.111
1279879593407,99.6689
1279879653407,99.7393
1279879713407,100.320
1279879773407,100.141
1279879833407,100.204
1279879893407,100.152
1279879953407,100.266
1279880013407,100.260
1279880073407,100.215
1279880133407,99.8982
1279880193407,100.056
1279880253407,99.9786
1279880313407,100.212
1279880373407,100.191
1279880433407,100.283
1279880493407,99.7740
1279880553407,100.270
1279880613407,100.036
1279880673407,100.202
1279880733407,99.6240
1279880793407,99.9718
1279880853407,100.020
1279880913407,100.067
1279880973407,99.9007
1279881033407,99.9788
1279881093407,100.153
1279881153407,99.8974
1279881213407,100.086
1279881273407,99.8026
1279881333407,100.044
1279881393407,99.9640
1279881453407,100.043
1279881513407,100.486
1279881573407,99.8785
1279881633407,100.117
1279881693407,100.264
1279881753407,100.131
1279881813407,100.006
1279881873407,99.7957
1279881933407,100.715
1279881993407,100.101
1279882053407,100.571
1279882113407,100.237
1279882173407,100.344
1279882233407,100.398
1279882293407,100.560
1279882353407,99.7410
1279882413407,100.443
1279882473407,100.203
1279882533407,100.394
1279882593407,100.478
1279882653407,100.140
1279882713407,100.562
1279882773407,100.066
1279882833415,100.344
1279882893415,99.9962
1279882953415,100.021
1279883013415,100.507
1279883073415,100.339
1279883133415,100.060
1279883193415,99.9822
1279883253415,99.7107
1279883313415,100.382
1279883373415,100.694
1279883433415,100.683
1279883493415,100.143
1279883553415,100.429
1279883613415,100.413
1279883673415,99.7565
1279883733415,100.316
1279883793415,100.807
1279883853415,100.341
1279883913415,100.609
1279883973415,100.116
1279884033415,100.391
1279884093415,99.8894
1279884153415,100.344
1279884213415,100.320
1279884273415,100.330
1279884333415,100.615
1279884393415,100.345
1279884453415,100.721
1279884513415,100.624
1279884573415,100.226
1279884633415,100.357
1279884693415,100.817
1279884753415,100.574
1279884813415,99.7511
1279884873415,100.689
1279884933415,100.787
1279884993415,100.831
1279885053415,100.734
1279885113415,100.916
1279885173415,100.600
1279885233415,100.571
1279885293415,100.741
1279885353415,100.647
1279885413415,100.721
1279885473415,100.788
1279885533415,100.794
1279885593415,100.572
1279885653415,100.706
1279885713415,100.436
1279885773415,100.814
1279885833415,100.860
1279885893415,100.405
1279885953415,100.924
1279886013415,100.835
1279886073415,100.709
1279886133415,101.119
1279886193415,100.839
1279886253415,101.105
1279886313415,100.914
1279886373415,100.683
1279886433423,101.320
1279886493423,100.978
1279886553423,101.314
1279886613423,100.547
1279886673423,101.000
1279886733423,101.010
1279886793423,100.622
1279886853423,100.805
1279886913423,101.063
1279886973423,100.845
1279887033423,101.357
1279887093423,100.679
1279887153423,100.714
1279887213423,100.395
1279887273423,100.747
1279887333423,100.630
1279887393423,101.003
1279887453423,100.889
1279887513423,100.607
1279887573423,100.432
1279887633423,100.782
1279887693423,100.753
1279887753424,100.798
1279887813423,100.612
1279887873423,100.667
1279887933423,100.564
1279887993423,100.619
1279888053423,100.748
1279888113423,100.240
1279888173423,99.6951
1279888233423,100.793
1279888293423,100.313
1279888353423,100.956
1279888413423,100.671
1279888473423,100.159
1279888533423,100.311
1279888593423,100.615
1279888653423,100.359
1279888713423,100.545
1279888773423,100.694
1279888833423,100.588
1279888893423,100.267
1279888953423,100.355
1279889013423,99.7049
1279889073424,100.487
1279889133423,99.6426
1279889193423,100.345
1279889253423,100.153
1279889313423,99.9906
1279889373423,100.265
1279889433423,100.210
1279889493423,100.329
1279889553423,100.716
1279889613423,100.136
1279889673423,100.272
1279889733423,100.354
1279889793423,99.8074
1279889853423,100.593
1279889913423,100.704
1279889973423,100.049
1279890033432,100.727
1279890093432,100.554
1279890153432,100.660
1279890213432,100.121
1279890273432,100.362
1279890333432,100.887
1279890393432,100.385
1279890453432,100.746
1279890513432,100.645
1279890573432,100.496
1279890633432,100.510
1279890693432,100.377
1279890753432,100.533
1279890813432,100.362
1279890873432,100.472
1279890933432,99.8080
1279890993432,100.022
1279891053432,100.029
1279891113432,100.657
1279891173432,100.685
1279891233432,100.231
1279891293432,100.219
1279891353432,100.785
1279891413432,100.261
1279891473432,100.148
1279891533432,100.478
1279891593432,100.676
1279891653432,100.086
1279891713432,101.076
1279891773432,100.255
1279891833432,100.136
1279891893432,100.665
1279891953432,100.823
1279892013432,101.113
1279892073432,100.149
1279892133432,100.436
1279892193432,100.368
1279892253432,99.8417
1279892313432,100.840
1279892373432,100.713
1279892433432,99.6600
1279892493432,100.654
1279892553432,100.228
1279892613432,100.537
1279892673432,100.695
1279892733432,100.281
1279892793432,100.629
1279892853432,99.8276
1279892913432,100.557
1279892973432,100.451
1279893033432,99.9591
1279893093432,100.010
1279893153432,100.387
1279893213432,99.9289
1279893273432,100.265
1279893333432,99.9805
1279893393432,100.553
1279893453432,100.222
1279893513432,100.615
1279893573432,100.096
1279893633440,100.319
1279893693440,99.9572
1279893753440,100.094
1279893813440,100.395
1279893873440,100.142
1279893933440,99.9602
1279893993440,100.179
1279894053440,100.167
1279894113440,100.403
1279894173440,100.254
1279894233440,100.701
1279894293440,99.8289
1279894353440,99.8047
1279894413440,99.7458
1279894473440,100.026
1279894533440,99.7295
1279894593440,99.9198
1279894653440,99.7933
1279894713440,99.7258
1279894773440,100.074
1279894833440,99.3481
1279894893440,99.8808
1279894953440,99.9806
1279895013440,99.6597
1279895073440,99.8688
1279895133440,100.015
1279895193440,100.089
1279895253440,99.8804
1279895313440,99.9628
1279895373440,99.8886
1279895433440,99.8896
1279895493440,99.6707
1279895553440,99.8044
1279895613440,99.5544
1279895673440,99.6363
1279895733440,99.9397
1279895793440,99.4590
1279895853440,99.3235
1279895913440,99.7488
1279895973440,99.2981
1279896033440,99.3069
1279896093440,99.7947
1279896153440,99.4015
1279896213440,99.7317
1279896273440,99.4406
1279896333440,99.5948
1279896393440,99.3989
1279896453440,99.6145
1279896513440,99.1981
1279896573440,99.9245
1279896633440,98.8262
1279896693440,99.5021
1279896753440,99.1006
1279896813440,98.9063
1279896873440,99.1574
1279896933440,99.5369
1279896993440,99.4122
1279897053440,98.8442
1279897113440,99.3730
1279897173440,99.3450
1279897233449,99.1641
1279897293449,98.8737
1279897353449,99.1226
1279897413449,98.9525
1279897473449,99.0863
1279897533449,99.1151
1279897593449,98.9245
1279897653449,99.3233
1279897713449,99.3467
1279897773449,98.9272
1279897833449,99.1979
1279897893449,98.9147
1279897953449,98.6192
1279898013449,98.8456
1279898073449,99.6519
1279898133449,98.4302
1279898193449,98.5612
1279898253449,98.9518
1279898313449,98.2525
1279898373449,98.8157
1279898433449,99.0117
1279898493449,98.1633
1279898553449,98.4901
1279898613449,98.9322
1279898673449,98.6346
1279898733449,98.3838
1279898793449,98.4203
1279898853449,98.1569
1279898913449,98.7952
1279898973449,98.4104
1279899033449,98.6887
1279899093449,98.1854
1279899153449,98.8758
1279899213449,98.5375
1279899273449,97.9257
1279899333449,98.8495
1279899393449,97.8148
1279899453449,98.6543
1279899513449,98.2472
1279899573449,97.9066
1279899633449,98.3106
1279899693449,98.4719
1279899753449,98.4508
1279899813449,98.4081
1279899873449,98.4562
1279899933449,98.7188
1279899993449,98.4260
1279900053449,98.4546
1279900113449,98.6670
1279900173449,98.0229
1279900233449,98.9473
1279900293449,98.6522
1279900353449,98.5478
1279900413449,98.1661
1279900473449,98.2529
1279900533449,98.3982
1279900593449,98.3797
1279900653449,98.0934
1279900713449,98.3485
1279900773449,98.5805
1279900833458,98.4599
1279900893458,98.3087
1279900953458,98.0568
1279901013458,98.3575
1279901073458,98.7812
1279901133458,98.4714
1279901193458,98.2297
1279901253458,98.6022
1279901313458,98.4509
1279901373458,98.2329
1279901433458,98.2813
1279901493458,98.4835
1279901553458,98.5036
1279901613458,98.0017
1279901673458,97.7539
1279901733458,98.1948
1279901793458,98.2511
1279901853458,97.6789
1279901913458,98.3775
1279901973458,98.3715
1279902033458,98.5515
1279902093458,98.3717
1279902153458,97.4287
1279902213458,97.9347
1279902273458,98.0060
1279902333458,98.0253
1279902393458,97.7223
1279902453458,97.4990
1279902513458,98.2383
1279902573458,97.9520
1279902633458,97.7787
1279902693458,97.9487
1279902753458,97.6800
1279902813458,97.3841
1279902873458,98.1614
1279902933458,97.6091
1279902993458,97.6145
1279903053458,97.4142
1279903113458,97.9898
1279903173458,97.7416
1279903233458,97.5118
1279903293458,97.5852
1279903353458,97.9414
1279903413458,97.6336
1279903473458,97.8270
1279903533458,97.8615
1279903593458,97.4760
1279903653458,97.7094
1279903713458,97.5808
1279903773458,97.8316
1279903833458,97.4013
1279903893458,97.5195
1279903953458,97.4345
1279904013458,97.7722
1279904073458,97.6000
1279904133458,97.4728
1279904193458,97.8188
1279904253458,97.9844
1279904313458,97.5413
1279904373458,97.7893
1279904433468,97.6710
1279904493468,97.3342
1279904553468,97.6332
1279904613468,97.5533
1279904673468,97.9308
1279904733468,97.4914
1279904793468,97.4199
1279904853468,97.8251
1279904913468,97.6776
1279904973468,97.7799
1279905033468,97.5668
1279905093468,98.0669
1279905153468,97.9885
1279905213468,98.0296
1279905273468,97.1850
1279905333468,97.5759
1279905393468,97.7795
1279905453468,97.7817
1279905513468,98.0764
1279905573468,97.2845
1279905633468,97.7167
1279905693468,97.6902
1279905753468,98.1041
1279905813468,97.4148
1279905873468,97.6355
1279905933468,97.7889
1279905993468,97.7432
1279906053468,98.3394
1279906113468,97.4230
1279906173468,97.8453
1279906233468,97.0317
1279906293468,97.5906
1279906353468,97.8708
1279906413468,97.7921
1279906473468,97.7012
1279906533468,97.6706
1279906593468,97.2340
1279906653468,97.9450
1279906713468,97.7024
1279906773468,98.2774
1279906833468,97.7475
1279906893468,97.8914
1279906953468,97.8554
1279907013468,97.7412
1279907073468,97.9357
1279907133468,97.8999
1279907193468,97.8213
1279907253468,97.7502
1279907313468,98.3794
1279907373468,98.0663
1279907433468,98.3424
1279907493468,98.0130
1279907553468,97.6546
1279907613468,97.8566
1279907673468,98.0832
1279907733468,97.8245
1279907793468,97.7896
1279907853468,97.8131
1279907913468,98.4385
1279907973468,97.9317
1279908033477,97.7739
1279908093477,98.0204
1279908153477,97.8808
1279908213477,98.0144
1279908273477,98.1588
1279908333477,97.1767
1279908393477,97.9911
1279908453477,97.5488
1279908513477,97.3705
1279908573477,97.8371